Flight Track Log - Related Links

Times and Time Zones

All times are in EDT time to prevent confusion due to time zone crossing. See the LBQ792 flight status page for this flight to view local times or setup timezone preferences in your user account.

Time Position Orientation Groundspeed Altitude Reporting Facility
EDT Latitude Longitude Course Direction KTS MPH feet Rate Location/Type
Tue 08:33:29 PM 40.3903 -76.1231 346° North 199 229 5,700  Level New York Center
Tue 08:34:30 PM 40.4064 -76.1814 290° West 194 223 7,000 1,438 Climbing New York Center
Tue 08:35:30 PM 40.4261 -76.2483 291° West 194 223 8,600 1,475 Climbing New York Center
Tue 08:36:00 PM 40.5167 -76.4374 270° West  Level FlightAware Approximate
Tue 08:36:28 PM 40.4556 -76.2864 315° West 181 208 9,900  Level New York Center
Tue 08:37:00 PM 40.5363 -76.5284 288° West  Level FlightAware Approximate
Tue 08:37:29 PM 40.5089 -76.3097 342° North 172 198 11,600  Level New York Center
Tue 08:38:00 PM 40.5775 -76.5925 346° North  Level FlightAware Approximate
Tue 08:38:30 PM 40.5617 -76.3358 339° North 186 214 12,000  Level New York Center
Tue 08:39:28 PM 40.6231 -76.3600 343° North 213 245 12,000  Level New York Center
Tue 08:40:29 PM 40.6803 -76.3836 343° North 231 266 12,000  Level New York Center
Tue 08:41:29 PM 40.7519 -76.4142 342° North 242 278 12,000  Level New York Center
Tue 08:42:30 PM 40.8172 -76.4417 342° North 242 278 12,000  Level New York Center
Tue 08:43:30 PM 40.8806 -76.4689 342° North 242 278 12,000  Level New York Center
Tue 08:44:28 PM 40.9375 -76.4956 341° North 237 273 12,000  Level New York Center
Tue 08:45:29 PM 41.0069 -76.5233 343° North 237 273 12,000  Level New York Center
Tue 08:46:29 PM 41.0703 -76.5508 342° North 242 278 12,000  Level New York Center
Tue 08:47:30 PM 41.1336 -76.5756 344° North 242 278 12,000  Level New York Center
Tue 08:48:28 PM 41.1889 -76.5967 344° North 242 278 12,000  Level New York Center
Tue 08:49:28 PM 41.2522 -76.6242 342° North 242 278 12,000  Level New York Center
Tue 08:50:28 PM 41.3214 -76.6553 341° North 242 278 12,000  Level New York Center
Tue 08:51:27 PM 41.3844 -76.6856 340° North 242 278 12,000  Level New York Center
Tue 08:52:28 PM 41.4414 -76.7128 340° North 247 284 12,000  Level New York Center
Tue 08:53:30 PM 41.5047 -76.7406 342° North 241 277 12,000  Level New York Center
Tue 08:54:30 PM 41.5697 -76.7711 341° North 241 277 12,000  Level New York Center
Tue 08:55:27 PM 41.6308 -76.8017 340° North 241 277 12,000 -403 Level New York Center
Tue 08:56:29 PM 41.6981 -76.8300 343° North 241 277 11,200 -927 Descending New York Center
Tue 08:57:30 PM 41.7658 -76.8472 349° North 241 277 10,100 -1,322 Descending New York Center
Tue 08:58:27 PM 41.8375 -76.8317 North 241 277 8,600 -1,424 Descending New York Center
Tue 08:59:28 PM 41.9131 -76.8189 North 254 292 7,300 -1,279 Descending New York Center

Login

Don't have an account? Register now (free) for customized features, flight alerts, and more!